Location: Chuathbaluk
(61.5726°N, 159.2454°W)
Time: 05:06:44
(UTC+00:00)

Transit 2A - Pass Details

Date: 02 December 2020
Orbit: 599 x 960 km, 66.7° (Epoch: 26 January)

Event Time Altitude Azimuth Distance (km) Brightness Sun altitude
Rises 05:28:15 0° 240° (WSW) 3,590 10.3 -26.6°
Reaches altitude 10° 05:30:52 10° 242° (WSW) 2,615 9.5 -26.9°
Maximum altitude 05:36:59 79° 330° (NNW) 891 6.2 -27.6°
Enters shadow 05:37:26 73° 18° (NNE) 905 6.2 -27.7°
Drops below altitude 10° 05:42:35 10° 57° (ENE) 2,400 - -28.3°
Sets 05:44:54 0° 59° (ENE) 3,277 - -28.5°
